Time,TemperatureF,DewpointF,PressureIn,WindDirection,WindDirectionDegrees,WindSpeedMPH,WindSpeedGustMPH,Humidity,HourlyPrecipIn,Conditions,Clouds,dailyrainin,SoftwareType,DateUTC
2013-06-09 00:01:00,59.9,56.0,30.15,NNE,24,0.0,0.0,87,0.00,CLR,,0.00,WeatherDisplay:10.37,2013-06-09 04:01:00,
2013-06-09 00:02:00,59.9,56.0,30.15,NNE,24,0.0,0.0,87,0.00,CLR,,0.00,WeatherDisplay:10.37,2013-06-09 04:02:00,
2013-06-09 00:07:00,59.7,55.8,30.15,NNE,24,0.0,0.0,87,0.00,CLR,,0.00,WeatherDisplay:10.37,2013-06-09 04:07:00,
2013-06-09 00:12:00,59.7,55.8,30.15,NNE,24,0.0,0.0,87,0.00,CLR,,0.00,WeatherDisplay:10.37,2013-06-09 04:12:00,
2013-06-09 00:17:00,59.5,55.7,30.15,NNE,24,0.0,0.0,87,0.00,CLR,,0.00,WeatherDisplay:10.37,2013-06-09 04:17:00,
2013-06-09 00:22:00,59.5,55.7,30.15,NNE,24,0.0,0.0,87,0.00,CLR,,0.00,WeatherDisplay:10.37,2013-06-09 04:22:00,
2013-06-09 00:27:00,59.5,55.7,30.14,NNE,24,0.0,0.0,87,0.00,CLR,,0.00,WeatherDisplay:10.37,2013-06-09 04:27:00,
2013-06-09 00:32:00,59.5,55.7,30.15,NNE,24,0.0,0.0,87,0.00,CLR,,0.00,WeatherDisplay:10.37,2013-06-09 04:32:00,
2013-06-09 00:37:00,59.5,55.7,30.15,NNE,24,0.0,0.0,87,0.00,CLR,,0.00,WeatherDisplay:10.37,2013-06-09 04:37:00,
2013-06-09 00:42:00,59.2,55.3,30.15,NNE,24,0.0,0.0,87,0.00,CLR,,0.00,WeatherDisplay:10.37,2013-06-09 04:42:00,
2013-06-09 00:47:00,59.0,55.1,30.15,NNE,24,0.0,0.0,87,0.00,CLR,,0.00,WeatherDisplay:10.37,2013-06-09 04:47:00,
2013-06-09 00:52:00,58.8,55.0,30.14,NNE,24,0.0,0.0,87,0.00,CLR,,0.00,WeatherDisplay:10.37,2013-06-09 04:52:00,
2013-06-09 00:58:00,58.8,55.0,30.14,NNE,24,0.0,0.0,87,0.00,CLR,,0.00,WeatherDisplay:10.37,2013-06-09 04:58:00,
2013-06-09 01:03:00,58.8,55.0,30.14,NNE,24,0.0,0.0,87,0.00,CLR,,0.00,WeatherDisplay:10.37,2013-06-09 05:03:00,
2013-06-09 01:08:00,58.8,55.0,30.14,NNE,24,0.0,0.0,87,0.00,CLR,,0.00,WeatherDisplay:10.37,2013-06-09 05:08:00,
2013-06-09 01:13:00,58.8,55.0,30.14,NNE,24,0.0,0.0,87,0.00,CLR,,0.00,WeatherDisplay:10.37,2013-06-09 05:13:00,
2013-06-09 01:18:00,58.8,55.0,30.14,NNE,24,0.0,0.0,87,0.00,CLR,,0.00,WeatherDisplay:10.37,2013-06-09 05:18:00,
2013-06-09 01:23:00,58.8,55.3,30.14,NNE,24,0.0,0.0,88,0.00,CLR,,0.00,WeatherDisplay:10.37,2013-06-09 05:23:00,
2013-06-09 01:28:00,58.6,55.1,30.14,NNE,24,0.0,0.0,88,0.00,CLR,,0.00,WeatherDisplay:10.37,2013-06-09 05:28:00,
2013-06-09 01:33:00,58.5,54.9,30.14,NNE,24,0.0,0.0,88,0.00,CLR,,0.00,WeatherDisplay:10.37,2013-06-09 05:33:00,
2013-06-09 01:38:00,58.3,54.7,30.14,NNE,24,0.0,0.0,88,0.00,CLR,,0.00,WeatherDisplay:10.37,2013-06-09 05:38:00,
2013-06-09 01:43:00,58.1,54.6,30.14,NNE,24,0.0,0.0,88,0.00,CLR,,0.00,WeatherDisplay:10.37,2013-06-09 05:43:00,
2013-06-09 01:48:00,58.1,54.6,30.14,NNE,24,0.0,0.0,88,0.00,CLR,,0.00,WeatherDisplay:10.37,2013-06-09 05:48:00,
2013-06-09 01:53:00,57.9,54.4,30.14,NNE,24,0.0,0.0,88,0.00,CLR,,0.00,WeatherDisplay:10.37,2013-06-09 05:53:00,
2013-06-09 01:58:00,57.9,54.4,30.14,NNE,24,0.0,0.0,88,0.00,CLR,,0.00,WeatherDisplay:10.37,2013-06-09 05:58:00,
2013-06-09 02:03:00,57.9,54.4,30.14,NNE,24,0.0,0.0,88,0.00,CLR,,0.00,WeatherDisplay:10.37,2013-06-09 06:03:00,
2013-06-09 02:08:00,57.7,54.2,30.14,NNE,24,0.0,0.0,88,0.00,CLR,,0.00,WeatherDisplay:10.37,2013-06-09 06:08:00,
2013-06-09 02:13:00,57.7,54.2,30.13,NNE,24,0.0,0.0,88,0.00,CLR,,0.00,WeatherDisplay:10.37,2013-06-09 06:13:00,
2013-06-09 02:18:00,57.6,54.3,30.14,NNE,24,0.0,0.0,89,0.00,CLR,,0.00,WeatherDisplay:10.37,2013-06-09 06:18:00,
2013-06-09 02:23:00,57.6,54.3,30.14,NNE,24,0.0,0.0,89,0.00,CLR,,0.00,WeatherDisplay:10.37,2013-06-09 06:23:00,
2013-06-09 02:28:00,57.4,54.2,30.14,NNE,24,0.0,0.0,89,0.00,CLR,,0.00,WeatherDisplay:10.37,2013-06-09 06:28:00,
2013-06-09 02:33:00,57.4,54.2,30.14,NNE,24,0.0,0.0,89,0.00,CLR,,0.00,WeatherDisplay:10.37,2013-06-09 06:33:00,
2013-06-09 02:38:00,57.4,54.2,30.13,NNE,24,0.0,0.0,89,0.00,CLR,,0.00,WeatherDisplay:10.37,2013-06-09 06:38:00,
2013-06-09 02:43:00,57.4,54.2,30.14,NNE,24,0.0,0.0,89,0.00,CLR,,0.00,WeatherDisplay:10.37,2013-06-09 06:43:00,
2013-06-09 02:48:00,57.4,54.2,30.14,NNE,24,0.0,0.0,89,0.00,CLR,,0.00,WeatherDisplay:10.37,2013-06-09 06:48:00,
2013-06-09 02:53:00,57.4,54.2,30.13,NNE,24,0.0,0.0,89,0.00,CLR,,0.00,WeatherDisplay:10.37,2013-06-09 06:53:00,
2013-06-09 02:58:00,57.6,54.3,30.14,NNE,24,0.0,0.0,89,0.00,CLR,,0.00,WeatherDisplay:10.37,2013-06-09 06:58:00,
2013-06-09 03:03:00,57.6,54.3,30.13,NNE,24,0.0,0.0,89,0.00,CLR,,0.00,WeatherDisplay:10.37,2013-06-09 07:03:00,
2013-06-09 03:08:00,57.6,54.3,30.14,NNE,24,0.0,0.0,89,0.00,CLR,,0.00,WeatherDisplay:10.37,2013-06-09 07:08:00,
2013-06-09 03:13:00,57.6,54.3,30.14,NNE,24,0.0,0.0,89,0.00,CLR,,0.00,WeatherDisplay:10.37,2013-06-09 07:13:00,
2013-06-09 03:18:00,57.6,54.3,30.14,NNE,24,0.0,0.0,89,0.00,CLR,,0.00,WeatherDisplay:10.37,2013-06-09 07:18:00,
2013-06-09 03:23:00,57.6,54.3,30.14,NNE,24,0.0,0.0,89,0.00,CLR,,0.00,WeatherDisplay:10.37,2013-06-09 07:23:00,
2013-06-09 03:28:00,57.7,54.5,30.14,NNE,24,0.0,0.0,89,0.00,CLR,,0.00,WeatherDisplay:10.37,2013-06-09 07:28:00,
2013-06-09 03:33:00,57.7,54.5,30.14,NNE,24,0.0,0.0,89,0.00,CLR,,0.00,WeatherDisplay:10.37,2013-06-09 07:33:00,
2013-06-09 03:38:00,57.7,54.5,30.14,NNE,24,0.0,0.0,89,0.00,CLR,,0.00,WeatherDisplay:10.37,2013-06-09 07:38:00,
2013-06-09 03:43:00,57.9,54.7,30.14,NNE,24,0.0,0.0,89,0.00,CLR,,0.00,WeatherDisplay:10.37,2013-06-09 07:43:00,
2013-06-09 03:48:00,57.9,54.7,30.14,NNE,24,0.0,0.0,89,0.00,CLR,,0.00,WeatherDisplay:10.37,2013-06-09 07:48:00,
2013-06-09 03:53:00,57.9,54.7,30.14,NNE,24,0.0,0.0,89,0.00,CLR,,0.00,WeatherDisplay:10.37,2013-06-09 07:53:00,
2013-06-09 03:58:00,57.9,54.7,30.14,NNE,24,0.0,0.0,89,0.00,CLR,,0.00,WeatherDisplay:10.37,2013-06-09 07:58:00,
2013-06-09 04:03:00,57.9,54.7,30.14,NNE,24,0.0,0.0,89,0.00,CLR,,0.00,WeatherDisplay:10.37,2013-06-09 08:03:00,
2013-06-09 04:08:00,57.9,54.7,30.14,NNE,24,0.0,0.0,89,0.00,CLR,,0.00,WeatherDisplay:10.37,2013-06-09 08:08:00,
2013-06-09 04:13:00,57.9,54.7,30.14,NNE,24,0.0,0.0,89,0.00,CLR,,0.00,WeatherDisplay:10.37,2013-06-09 08:13:00,
2013-06-09 04:18:00,57.9,54.7,30.14,NNE,24,0.0,0.0,89,0.00,CLR,,0.00,WeatherDisplay:10.37,2013-06-09 08:18:00,
2013-06-09 04:23:00,57.9,54.7,30.14,NNE,24,0.0,0.0,89,0.00,CLR,,0.00,WeatherDisplay:10.37,2013-06-09 08:23:00,
2013-06-09 04:28:00,57.9,54.7,30.14,NNE,24,0.0,0.0,89,0.00,CLR,,0.00,WeatherDisplay:10.37,2013-06-09 08:28:00,
2013-06-09 04:33:00,57.9,54.7,30.14,NNE,24,0.0,0.0,89,0.00,CLR,,0.00,WeatherDisplay:10.37,2013-06-09 08:33:00,
2013-06-09 04:38:00,57.9,54.7,30.14,NNE,24,0.0,0.0,89,0.00,CLR,,0.00,WeatherDisplay:10.37,2013-06-09 08:38:00,
2013-06-09 04:43:00,57.9,54.7,30.15,NNE,24,0.0,0.0,89,0.00,CLR,,0.00,WeatherDisplay:10.37,2013-06-09 08:43:00,
2013-06-09 04:48:00,57.7,54.5,30.15,NNE,24,0.0,0.0,89,0.00,CLR,,0.00,WeatherDisplay:10.37,2013-06-09 08:48:00,
2013-06-09 04:53:00,57.6,54.3,30.15,NNE,24,0.0,0.0,89,0.00,CLR,,0.00,WeatherDisplay:10.37,2013-06-09 08:53:00,
2013-06-09 04:58:00,57.6,54.3,30.15,NNE,24,0.0,0.0,89,0.00,CLR,,0.00,WeatherDisplay:10.37,2013-06-09 08:58:00,
2013-06-09 05:03:00,57.4,54.2,30.16,NNE,24,0.0,0.0,89,0.00,CLR,,0.00,WeatherDisplay:10.37,2013-06-09 09:03:00,
2013-06-09 05:08:00,57.4,54.2,30.15,NNE,24,0.0,0.0,89,0.00,CLR,,0.00,WeatherDisplay:10.37,2013-06-09 09:08:00,
2013-06-09 05:13:00,57.4,54.2,30.15,NNE,24,0.0,0.0,89,0.00,CLR,,0.00,WeatherDisplay:10.37,2013-06-09 09:13:00,
2013-06-09 05:18:00,57.0,53.8,30.15,NNE,24,0.0,0.0,89,0.00,CLR,,0.00,WeatherDisplay:10.37,2013-06-09 09:18:00,
2013-06-09 05:23:00,57.0,53.8,30.15,NNE,24,0.0,0.0,89,0.00,CLR,,0.00,WeatherDisplay:10.37,2013-06-09 09:23:00,
2013-06-09 05:28:00,57.0,53.8,30.15,NNE,24,0.0,0.0,89,0.00,CLR,,0.00,WeatherDisplay:10.37,2013-06-09 09:28:00,
2013-06-09 05:33:00,57.0,53.8,30.15,NNE,24,0.0,0.0,89,0.00,CLR,,0.00,WeatherDisplay:10.37,2013-06-09 09:33:00,
2013-06-09 05:38:00,57.0,54.1,30.15,NNE,24,0.0,0.0,90,0.00,CLR,,0.00,WeatherDisplay:10.37,2013-06-09 09:38:00,
2013-06-09 05:43:00,57.0,54.1,30.15,NNE,24,0.0,0.0,90,0.00,CLR,,0.00,WeatherDisplay:10.37,2013-06-09 09:43:00,
2013-06-09 05:48:00,57.0,54.1,30.15,NNE,24,0.0,0.0,90,0.00,CLR,,0.00,WeatherDisplay:10.37,2013-06-09 09:48:00,
2013-06-09 05:53:00,57.0,54.1,30.15,NNE,24,0.0,0.0,90,0.00,CLR,,0.00,WeatherDisplay:10.37,2013-06-09 09:53:00,
2013-06-09 05:58:00,57.0,54.1,30.15,NNE,24,0.0,0.0,90,0.00,CLR,,0.00,WeatherDisplay:10.37,2013-06-09 09:58:00,
2013-06-09 06:03:00,57.0,54.1,30.15,NNE,24,0.0,0.0,90,0.00,CLR,,0.00,WeatherDisplay:10.37,2013-06-09 10:03:00,
2013-06-09 06:08:00,57.0,54.1,30.15,NNE,24,0.0,0.0,90,0.00,CLR,,0.00,WeatherDisplay:10.37,2013-06-09 10:08:00,
2013-06-09 06:13:00,56.8,53.9,30.15,NNE,24,0.0,0.0,90,0.00,CLR,,0.00,WeatherDisplay:10.37,2013-06-09 10:13:00,
2013-06-09 06:18:00,56.8,53.9,30.16,NNE,24,0.0,0.0,90,0.00,CLR,,0.00,WeatherDisplay:10.37,2013-06-09 10:18:00,
2013-06-09 06:23:00,56.8,53.9,30.15,NNE,24,0.0,0.0,90,0.00,CLR,,0.00,WeatherDisplay:10.37,2013-06-09 10:23:00,
2013-06-09 06:28:00,56.8,53.9,30.16,NNE,24,0.0,0.0,90,0.00,CLR,,0.00,WeatherDisplay:10.37,2013-06-09 10:28:00,
2013-06-09 06:33:00,57.0,54.1,30.16,NNE,24,0.0,0.0,90,0.00,CLR,,0.00,WeatherDisplay:10.37,2013-06-09 10:33:00,
2013-06-09 06:38:00,57.0,54.1,30.16,NNE,24,0.0,0.0,90,0.00,CLR,,0.00,WeatherDisplay:10.37,2013-06-09 10:38:00,
2013-06-09 06:43:00,57.0,54.1,30.16,NNE,24,0.0,0.0,90,0.00,CLR,,0.00,WeatherDisplay:10.37,2013-06-09 10:43:00,
2013-06-09 06:48:00,57.4,54.5,30.16,NNE,24,0.0,0.0,90,0.00,CLR,,0.00,WeatherDisplay:10.37,2013-06-09 10:48:00,
2013-06-09 06:53:00,57.4,54.5,30.16,NNE,24,0.0,0.0,90,0.00,CLR,,0.00,WeatherDisplay:10.37,2013-06-09 10:53:00,
2013-06-09 06:58:00,57.2,54.3,30.17,NNE,24,0.0,0.0,90,0.00,CLR,,0.00,WeatherDisplay:10.37,2013-06-09 10:58:00,
2013-06-09 07:03:00,57.4,54.5,30.16,NNE,24,0.0,0.0,90,0.00,CLR,,0.00,WeatherDisplay:10.37,2013-06-09 11:03:00,
2013-06-09 07:08:00,57.4,54.8,30.17,NNE,24,0.0,0.0,91,0.00,CLR,,0.00,WeatherDisplay:10.37,2013-06-09 11:08:00,
2013-06-09 07:13:00,57.4,54.8,30.18,NNE,24,0.0,0.0,91,0.00,CLR,,0.00,WeatherDisplay:10.37,2013-06-09 11:13:00,
2013-06-09 07:18:00,57.7,55.1,30.17,NNE,24,0.0,0.0,91,0.00,CLR,,0.00,WeatherDisplay:10.37,2013-06-09 11:18:00,
2013-06-09 07:23:00,57.9,55.3,30.17,NNE,24,0.0,0.0,91,0.00,CLR,,0.00,WeatherDisplay:10.37,2013-06-09 11:23:00,
2013-06-09 07:28:00,58.3,55.7,30.18,NNE,24,0.0,0.0,91,0.00,CLR,,0.00,WeatherDisplay:10.37,2013-06-09 11:28:00,
2013-06-09 07:33:00,58.6,56.0,30.18,NNE,24,0.0,0.0,91,0.00,CLR,,0.00,WeatherDisplay:10.37,2013-06-09 11:33:00,
2013-06-09 07:38:00,58.8,56.2,30.18,NNE,24,0.0,0.0,91,0.00,CLR,,0.00,WeatherDisplay:10.37,2013-06-09 11:38:00,
2013-06-09 07:43:00,58.8,56.2,30.18,NNE,24,0.0,0.0,91,0.00,CLR,,0.00,WeatherDisplay:10.37,2013-06-09 11:43:00,
2013-06-09 07:48:00,59.0,56.4,30.18,NNE,24,0.0,0.0,91,0.00,CLR,,0.00,WeatherDisplay:10.37,2013-06-09 11:48:00,
2013-06-09 07:53:00,59.4,56.4,30.18,NNE,24,0.0,0.0,90,0.00,CLR,,0.00,WeatherDisplay:10.37,2013-06-09 11:53:00,
2013-06-09 07:58:00,59.5,56.6,30.19,NNE,24,0.0,0.0,90,0.00,CLR,,0.00,WeatherDisplay:10.37,2013-06-09 11:58:00,
2013-06-09 08:03:00,59.7,56.8,30.19,NNE,24,0.0,0.0,90,0.00,CLR,,0.00,WeatherDisplay:10.37,2013-06-09 12:03:00,
2013-06-09 08:08:00,60.1,57.1,30.19,NNE,24,0.0,0.0,90,0.00,CLR,,0.00,WeatherDisplay:10.37,2013-06-09 12:08:00,
2013-06-09 08:13:00,60.4,57.5,30.19,NNE,24,0.0,0.0,90,0.00,CLR,,0.00,WeatherDisplay:10.37,2013-06-09 12:13:00,
2013-06-09 08:18:00,60.4,57.5,30.19,NNE,24,0.0,0.0,90,0.00,CLR,,0.00,WeatherDisplay:10.37,2013-06-09 12:18:00,
2013-06-09 08:23:00,60.6,57.7,30.19,NNE,24,0.0,0.0,90,0.00,CLR,,0.00,WeatherDisplay:10.37,2013-06-09 12:23:00,
2013-06-09 08:28:00,61.2,58.2,30.19,NNE,24,0.0,0.0,90,0.00,CLR,,0.00,WeatherDisplay:10.37,2013-06-09 12:28:00,
2013-06-09 08:33:00,61.2,58.2,30.19,NNE,24,0.0,0.0,90,0.00,CLR,,0.00,WeatherDisplay:10.37,2013-06-09 12:33:00,
2013-06-09 08:38:00,61.9,58.9,30.19,NNE,24,0.0,0.0,90,0.00,CLR,,0.00,WeatherDisplay:10.37,2013-06-09 12:38:00,
2013-06-09 08:43:00,62.2,59.3,30.19,NNE,24,0.0,0.0,90,0.00,CLR,,0.00,WeatherDisplay:10.37,2013-06-09 12:43:00,
2013-06-09 08:48:00,62.8,59.8,30.19,NNE,24,0.0,0.0,90,0.00,CLR,,0.00,WeatherDisplay:10.37,2013-06-09 12:48:00,
2013-06-09 08:53:00,63.1,59.8,30.19,NNE,24,0.0,0.0,89,0.00,CLR,,0.00,WeatherDisplay:10.37,2013-06-09 12:53:00,
2013-06-09 08:58:00,63.7,60.4,30.19,NNE,24,0.0,0.0,89,0.00,CLR,,0.00,WeatherDisplay:10.37,2013-06-09 12:58:00,
2013-06-09 09:03:00,64.2,60.9,30.19,NNE,24,0.0,0.0,89,0.00,CLR,,0.00,WeatherDisplay:10.37,2013-06-09 13:03:00,
2013-06-09 09:08:00,64.9,61.6,30.20,NNE,24,0.0,0.0,89,0.00,CLR,,0.00,WeatherDisplay:10.37,2013-06-09 13:08:00,
2013-06-09 09:13:00,65.5,62.2,30.20,NNE,24,0.0,0.0,89,0.00,CLR,,0.00,WeatherDisplay:10.37,2013-06-09 13:13:00,
2013-06-09 09:18:00,66.0,62.4,30.20,NNE,24,0.0,0.0,88,0.00,CLR,,0.00,WeatherDisplay:10.37,2013-06-09 13:18:00,
2013-06-09 09:23:00,67.3,63.3,30.20,NNE,24,0.0,0.0,87,0.00,CLR,,0.00,WeatherDisplay:10.37,2013-06-09 13:23:00,
2013-06-09 09:28:00,67.8,63.5,30.20,NNE,24,0.0,0.0,86,0.00,CLR,,0.00,WeatherDisplay:10.37,2013-06-09 13:28:00,
2013-06-09 09:33:00,68.7,63.7,30.20,NNE,24,0.0,0.0,84,0.00,CLR,,0.00,WeatherDisplay:10.37,2013-06-09 13:33:00,
2013-06-09 09:38:00,69.4,64.0,30.20,NNE,24,0.0,0.0,83,0.00,CLR,,0.00,WeatherDisplay:10.37,2013-06-09 13:38:00,
2013-06-09 09:43:00,70.2,64.4,30.20,NNE,24,0.0,0.0,82,0.00,CLR,,0.00,WeatherDisplay:10.37,2013-06-09 13:43:00,
2013-06-09 09:48:00,70.5,64.0,30.20,NNE,24,0.0,0.0,80,0.00,CLR,,0.00,WeatherDisplay:10.37,2013-06-09 13:48:00,
2013-06-09 09:53:00,71.4,64.2,30.19,NNE,24,0.0,0.0,78,0.00,CLR,,0.00,WeatherDisplay:10.37,2013-06-09 13:53:00,
2013-06-09 09:58:00,71.8,64.5,30.19,NNE,24,0.0,0.0,78,0.00,CLR,,0.00,WeatherDisplay:10.37,2013-06-09 13:58:00,
2013-06-09 10:03:00,72.1,64.2,30.19,NNE,24,0.0,0.0,76,0.00,CLR,,0.00,WeatherDisplay:10.37,2013-06-09 14:03:00,
2013-06-09 10:08:00,72.3,63.2,30.19,NNE,24,0.0,0.0,73,0.00,CLR,,0.00,WeatherDisplay:10.37,2013-06-09 14:08:00,
2013-06-09 10:13:00,72.7,63.5,30.19,NNE,24,0.0,0.0,73,0.00,CLR,,0.00,WeatherDisplay:10.37,2013-06-09 14:13:00,
2013-06-09 10:18:00,73.0,63.9,30.19,NNE,24,0.0,0.0,73,0.00,CLR,,0.00,WeatherDisplay:10.37,2013-06-09 14:18:00,
2013-06-09 10:23:00,73.2,62.8,30.19,NNE,24,0.0,0.0,70,0.00,CLR,,0.00,WeatherDisplay:10.37,2013-06-09 14:23:00,
2013-06-09 10:28:00,74.3,63.9,30.19,NNE,24,0.0,0.0,70,0.00,CLR,,0.00,WeatherDisplay:10.37,2013-06-09 14:28:00,
2013-06-09 10:33:00,75.2,63.1,30.19,NNE,24,0.0,0.0,66,0.00,CLR,,0.00,WeatherDisplay:10.37,2013-06-09 14:33:00,
2013-06-09 10:38:00,75.0,62.5,30.19,NNE,24,0.0,0.0,65,0.00,CLR,,0.00,WeatherDisplay:10.37,2013-06-09 14:38:00,
2013-06-09 10:43:00,75.4,63.2,30.19,NNE,24,0.0,0.0,66,0.00,CLR,,0.00,WeatherDisplay:10.37,2013-06-09 14:43:00,
2013-06-09 10:48:00,75.6,62.5,30.18,NNE,24,0.0,0.0,64,0.00,CLR,,0.00,WeatherDisplay:10.37,2013-06-09 14:48:00,
2013-06-09 10:53:00,75.4,61.9,30.19,NNE,24,0.0,0.0,63,0.00,CLR,,0.00,WeatherDisplay:10.37,2013-06-09 14:53:00,
2013-06-09 10:58:00,75.4,61.9,30.19,NNE,24,0.0,0.0,63,0.00,CLR,,0.00,WeatherDisplay:10.37,2013-06-09 14:58:00,
2013-06-09 11:04:00,75.0,61.6,30.19,NNE,24,0.0,0.0,63,0.00,CLR,,0.00,WeatherDisplay:10.37,2013-06-09 15:04:00,
2013-06-09 11:09:00,75.0,60.7,30.19,NNE,24,0.0,0.0,61,0.00,CLR,,0.00,WeatherDisplay:10.37,2013-06-09 15:09:00,
2013-06-09 11:14:00,74.8,60.5,30.19,NNE,24,0.0,0.0,61,0.00,CLR,,0.00,WeatherDisplay:10.37,2013-06-09 15:14:00,
2013-06-09 11:19:00,74.5,60.1,30.19,NNE,24,0.0,0.0,61,0.00,CLR,,0.00,WeatherDisplay:10.37,2013-06-09 15:19:00,
2013-06-09 11:24:00,74.8,60.0,30.19,NNE,24,0.0,0.0,60,0.00,CLR,,0.00,WeatherDisplay:10.37,2013-06-09 15:24:00,
2013-06-09 11:29:00,74.8,60.5,30.19,NNE,24,0.0,0.0,61,0.00,CLR,,0.00,WeatherDisplay:10.37,2013-06-09 15:29:00,
2013-06-09 11:34:00,75.0,61.6,30.19,NNE,24,0.0,0.0,63,0.00,CLR,,0.00,WeatherDisplay:10.37,2013-06-09 15:34:00,
2013-06-09 11:39:00,75.6,61.6,30.19,NNE,24,0.0,0.0,62,0.00,CLR,,0.00,WeatherDisplay:10.37,2013-06-09 15:39:00,
2013-06-09 11:44:00,75.6,61.2,30.18,NNE,24,0.0,0.0,61,0.00,CLR,,0.00,WeatherDisplay:10.37,2013-06-09 15:44:00,
2013-06-09 11:49:00,75.6,61.6,30.18,NNE,24,0.0,0.0,62,0.00,CLR,,0.00,WeatherDisplay:10.37,2013-06-09 15:49:00,
2013-06-09 11:54:00,75.6,60.7,30.18,NNE,24,0.0,0.0,60,0.00,CLR,,0.00,WeatherDisplay:10.37,2013-06-09 15:54:00,
2013-06-09 11:59:00,75.4,61.0,30.18,NNE,24,0.0,0.0,61,0.00,CLR,,0.00,WeatherDisplay:10.37,2013-06-09 15:59:00,
2013-06-09 12:04:00,75.4,61.0,30.17,NNE,24,0.0,0.0,61,0.00,CLR,,0.00,WeatherDisplay:10.37,2013-06-09 16:04:00,
2013-06-09 12:09:00,75.4,61.5,30.17,NNE,24,0.0,0.0,62,0.00,CLR,,0.00,WeatherDisplay:10.37,2013-06-09 16:09:00,
2013-06-09 12:14:00,75.9,62.0,30.17,NNE,24,0.0,0.0,62,0.00,CLR,,0.00,WeatherDisplay:10.37,2013-06-09 16:14:00,
2013-06-09 12:19:00,76.3,60.9,30.17,NNE,24,0.0,0.0,59,0.00,CLR,,0.00,WeatherDisplay:10.37,2013-06-09 16:19:00,
2013-06-09 12:24:00,76.6,60.8,30.18,NNE,24,0.0,0.0,58,0.00,CLR,,0.00,WeatherDisplay:10.37,2013-06-09 16:24:00,
2013-06-09 12:29:00,76.8,60.9,30.17,NNE,24,0.0,0.0,58,0.00,CLR,,0.00,WeatherDisplay:10.37,2013-06-09 16:29:00,
2013-06-09 12:34:00,77.2,61.3,30.17,NNE,24,0.0,0.0,58,0.00,CLR,,0.00,WeatherDisplay:10.37,2013-06-09 16:34:00,
2013-06-09 12:39:00,77.5,61.6,30.17,NNE,24,0.0,0.0,58,0.00,CLR,,0.00,WeatherDisplay:10.37,2013-06-09 16:39:00,
2013-06-09 12:44:00,78.1,61.1,30.17,NNE,24,0.0,0.0,56,0.00,CLR,,0.00,WeatherDisplay:10.37,2013-06-09 16:44:00,
2013-06-09 12:49:00,78.4,61.4,30.17,NNE,24,0.0,0.0,56,0.00,CLR,,0.00,WeatherDisplay:10.37,2013-06-09 16:49:00,
2013-06-09 12:54:00,78.6,61.1,30.17,NNE,24,0.0,0.0,55,0.00,CLR,,0.00,WeatherDisplay:10.37,2013-06-09 16:54:00,
2013-06-09 12:59:00,78.6,61.1,30.17,NNE,24,0.0,0.0,55,0.00,CLR,,0.00,WeatherDisplay:10.37,2013-06-09 16:59:00,
2013-06-09 13:04:00,78.6,61.6,30.16,NNE,24,0.0,0.0,56,0.00,CLR,,0.00,WeatherDisplay:10.37,2013-06-09 17:04:00,
2013-06-09 13:09:00,79.3,62.8,30.16,NNE,24,0.0,0.0,57,0.00,CLR,,0.00,WeatherDisplay:10.37,2013-06-09 17:09:00,
2013-06-09 13:14:00,79.9,61.2,30.16,NNE,24,0.0,0.0,53,0.00,CLR,,0.00,WeatherDisplay:10.37,2013-06-09 17:14:00,
2013-06-09 13:19:00,80.2,61.0,30.16,NNE,24,0.0,0.0,52,0.00,CLR,,0.00,WeatherDisplay:10.37,2013-06-09 17:19:00,
2013-06-09 13:24:00,80.2,61.6,30.16,NNE,24,0.0,0.0,53,0.00,CLR,,0.00,WeatherDisplay:10.37,2013-06-09 17:24:00,
2013-06-09 13:29:00,80.2,61.6,30.15,NNE,24,0.0,0.0,53,0.00,CLR,,0.00,WeatherDisplay:10.37,2013-06-09 17:29:00,
2013-06-09 13:34:00,80.8,62.1,30.15,NNE,24,0.0,0.0,53,0.00,CLR,,0.00,WeatherDisplay:10.37,2013-06-09 17:34:00,
2013-06-09 13:39:00,81.0,62.7,30.15,NNE,24,0.0,0.0,54,0.00,CLR,,0.00,WeatherDisplay:10.37,2013-06-09 17:39:00,
2013-06-09 13:44:00,81.1,62.4,30.15,NNE,24,0.0,0.0,53,0.00,CLR,,0.00,WeatherDisplay:10.37,2013-06-09 17:44:00,
2013-06-09 13:49:00,81.1,61.8,30.15,NNE,24,0.0,0.0,52,0.00,CLR,,0.00,WeatherDisplay:10.37,2013-06-09 17:49:00,
2013-06-09 13:54:00,81.1,61.3,30.15,NNE,24,0.0,0.0,51,0.00,CLR,,0.00,WeatherDisplay:10.37,2013-06-09 17:54:00,
2013-06-09 13:59:00,81.1,61.8,30.14,NNE,24,0.0,0.0,52,0.00,CLR,,0.00,WeatherDisplay:10.37,2013-06-09 17:59:00,
2013-06-09 14:04:00,81.1,61.3,30.14,NNE,24,0.0,0.0,51,0.00,CLR,,0.00,WeatherDisplay:10.37,2013-06-09 18:04:00,
2013-06-09 14:09:00,81.3,62.0,30.14,NNE,24,0.0,0.0,52,0.00,CLR,,0.00,WeatherDisplay:10.37,2013-06-09 18:09:00,
2013-06-09 14:14:00,82.0,61.6,30.13,NNE,24,0.0,0.0,50,0.00,CLR,,0.00,WeatherDisplay:10.37,2013-06-09 18:14:00,
2013-06-09 14:19:00,82.0,61.6,30.13,NNE,24,0.0,0.0,50,0.00,CLR,,0.00,WeatherDisplay:10.37,2013-06-09 18:19:00,
2013-06-09 14:24:00,82.0,61.0,30.13,NNE,24,0.0,0.0,49,0.00,CLR,,0.00,WeatherDisplay:10.37,2013-06-09 18:24:00,
2013-06-09 14:29:00,82.0,61.0,30.12,NNE,24,0.0,0.0,49,0.00,CLR,,0.00,WeatherDisplay:10.37,2013-06-09 18:29:00,
2013-06-09 14:34:00,82.0,60.4,30.12,NNE,24,0.0,0.0,48,0.00,CLR,,0.00,WeatherDisplay:10.37,2013-06-09 18:34:00,
2013-06-09 14:39:00,82.0,61.0,30.12,NNE,24,0.0,0.0,49,0.00,CLR,,0.00,WeatherDisplay:10.37,2013-06-09 18:39:00,
2013-06-09 14:44:00,82.0,60.4,30.12,NNE,24,0.0,0.0,48,0.00,CLR,,0.00,WeatherDisplay:10.37,2013-06-09 18:44:00,
2013-06-09 14:49:00,82.2,61.2,30.12,NNE,24,0.0,0.0,49,0.00,CLR,,0.00,WeatherDisplay:10.37,2013-06-09 18:49:00,
2013-06-09 14:54:00,82.8,61.1,30.11,NNE,24,0.0,0.0,48,0.00,CLR,,0.00,WeatherDisplay:10.37,2013-06-09 18:54:00,
2013-06-09 14:59:00,83.3,61.6,30.11,NNE,24,0.0,0.0,48,0.00,CLR,,0.00,WeatherDisplay:10.37,2013-06-09 18:59:00,
2013-06-09 15:04:00,83.5,61.7,30.11,NNE,24,0.0,0.0,48,0.00,CLR,,0.00,WeatherDisplay:10.37,2013-06-09 19:04:00,
2013-06-09 15:09:00,83.5,61.1,30.10,NNE,24,0.0,0.0,47,0.00,CLR,,0.00,WeatherDisplay:10.37,2013-06-09 19:09:00,
2013-06-09 15:14:00,83.8,60.8,30.10,NNE,24,0.0,0.0,46,0.00,CLR,,0.00,WeatherDisplay:10.37,2013-06-09 19:14:00,
2013-06-09 15:19:00,84.4,61.9,30.10,NNE,24,0.0,0.0,47,0.00,CLR,,0.00,WeatherDisplay:10.37,2013-06-09 19:19:00,
2013-06-09 15:24:00,85.5,62.3,30.10,NNE,24,0.0,0.0,46,0.00,CLR,,0.00,WeatherDisplay:10.37,2013-06-09 19:24:00,
2013-06-09 15:29:00,85.6,62.5,30.10,NNE,24,0.0,0.0,46,0.00,CLR,,0.00,WeatherDisplay:10.37,2013-06-09 19:29:00,
2013-06-09 15:34:00,85.1,62.0,30.10,NNE,24,0.0,0.0,46,0.00,CLR,,0.00,WeatherDisplay:10.37,2013-06-09 19:34:00,
2013-06-09 15:39:00,84.9,61.8,30.10,NNE,24,0.0,0.0,46,0.00,CLR,,0.00,WeatherDisplay:10.37,2013-06-09 19:39:00,
2013-06-09 15:44:00,83.8,61.5,30.10,NNE,24,0.0,0.0,47,0.00,CLR,,0.00,WeatherDisplay:10.37,2013-06-09 19:44:00,
2013-06-09 15:49:00,83.1,61.4,30.10,NNE,24,0.0,0.0,48,0.00,CLR,,0.00,WeatherDisplay:10.37,2013-06-09 19:49:00,
2013-06-09 15:54:00,82.2,60.6,30.10,NNE,24,0.0,0.0,48,0.00,CLR,,0.00,WeatherDisplay:10.37,2013-06-09 19:54:00,
2013-06-09 15:59:00,81.7,61.2,30.10,NNE,24,0.0,0.0,50,0.00,CLR,,0.00,WeatherDisplay:10.37,2013-06-09 19:59:00,
2013-06-09 16:04:00,82.0,61.6,30.10,NNE,24,0.0,0.0,50,0.00,CLR,,0.00,WeatherDisplay:10.37,2013-06-09 20:04:00,
2013-06-09 16:09:00,82.6,62.1,30.09,NNE,24,0.0,0.0,50,0.00,CLR,,0.00,WeatherDisplay:10.37,2013-06-09 20:09:00,
2013-06-09 16:14:00,82.9,61.8,30.09,NNE,24,0.0,0.0,49,0.00,CLR,,0.00,WeatherDisplay:10.37,2013-06-09 20:14:00,
2013-06-09 16:19:00,82.6,62.1,30.08,NNE,24,0.0,0.0,50,0.00,CLR,,0.00,WeatherDisplay:10.37,2013-06-09 20:19:00,
2013-06-09 16:24:00,82.6,61.5,30.08,NNE,24,0.0,0.0,49,0.00,CLR,,0.00,WeatherDisplay:10.37,2013-06-09 20:24:00,
2013-06-09 16:29:00,82.6,62.1,30.09,NNE,24,0.0,0.0,50,0.00,CLR,,0.00,WeatherDisplay:10.37,2013-06-09 20:29:00,
2013-06-09 16:34:00,82.8,62.8,30.08,NNE,24,0.0,0.0,51,0.00,CLR,,0.00,WeatherDisplay:10.37,2013-06-09 20:34:00,
2013-06-09 16:39:00,82.9,63.0,30.08,NNE,24,0.0,0.0,51,0.00,CLR,,0.00,WeatherDisplay:10.37,2013-06-09 20:39:00,
2013-06-09 16:44:00,82.6,63.2,30.08,NNE,24,0.0,0.0,52,0.00,CLR,,0.00,WeatherDisplay:10.37,2013-06-09 20:44:00,
2013-06-09 16:49:00,82.2,62.3,30.08,NNE,24,0.0,0.0,51,0.00,CLR,,0.00,WeatherDisplay:10.37,2013-06-09 20:49:00,
2013-06-09 16:54:00,81.3,61.5,30.08,NNE,24,0.0,0.0,51,0.00,CLR,,0.00,WeatherDisplay:10.37,2013-06-09 20:54:00,
2013-06-09 16:59:00,81.3,62.6,30.08,NNE,24,0.0,0.0,53,0.00,CLR,,0.00,WeatherDisplay:10.37,2013-06-09 20:59:00,
2013-06-09 17:04:00,81.7,62.3,30.08,NNE,24,0.0,0.0,52,0.00,CLR,,0.00,WeatherDisplay:10.37,2013-06-09 21:04:00,
2013-06-09 17:09:00,81.3,62.0,30.08,NNE,24,0.0,0.0,52,0.00,CLR,,0.00,WeatherDisplay:10.37,2013-06-09 21:09:00,
2013-06-09 17:14:00,81.0,62.2,30.08,NNE,24,0.0,0.0,53,0.00,CLR,,0.00,WeatherDisplay:10.37,2013-06-09 21:14:00,
2013-06-09 17:19:00,80.6,61.9,30.08,NNE,24,0.0,0.0,53,0.00,CLR,,0.00,WeatherDisplay:10.37,2013-06-09 21:19:00,
2013-06-09 17:24:00,80.6,62.4,30.08,NNE,24,0.0,0.0,54,0.00,CLR,,0.00,WeatherDisplay:10.37,2013-06-09 21:24:00,
2013-06-09 17:29:00,81.1,63.4,30.08,NNE,24,0.0,0.0,55,0.00,CLR,,0.00,WeatherDisplay:10.37,2013-06-09 21:29:00,
2013-06-09 17:34:00,81.5,63.8,30.07,NNE,24,0.0,0.0,55,0.00,CLR,,0.00,WeatherDisplay:10.37,2013-06-09 21:34:00,
2013-06-09 17:39:00,81.3,62.6,30.07,NNE,24,0.0,0.0,53,0.00,CLR,,0.00,WeatherDisplay:10.37,2013-06-09 21:39:00,
2013-06-09 17:44:00,81.7,63.9,30.07,NNE,24,0.0,0.0,55,0.00,CLR,,0.00,WeatherDisplay:10.37,2013-06-09 21:44:00,
2013-06-09 17:49:00,83.3,64.9,30.07,NNE,24,0.0,0.0,54,0.00,CLR,,0.00,WeatherDisplay:10.37,2013-06-09 21:49:00,
2013-06-09 17:54:00,84.9,65.3,30.07,NNE,24,0.0,0.0,52,0.00,CLR,,0.00,WeatherDisplay:10.37,2013-06-09 21:54:00,
2013-06-09 17:59:00,85.3,65.1,30.07,NNE,24,0.0,0.0,51,0.00,CLR,,0.00,WeatherDisplay:10.37,2013-06-09 21:59:00,
2013-06-09 18:04:00,85.3,64.5,30.07,NNE,24,0.0,0.0,50,0.00,CLR,,0.00,WeatherDisplay:10.37,2013-06-09 22:04:00,
2013-06-09 18:09:00,83.5,64.0,30.08,NNE,24,0.0,0.0,52,0.00,CLR,,0.00,WeatherDisplay:10.37,2013-06-09 22:09:00,
2013-06-09 18:14:00,82.2,62.8,30.07,NNE,24,0.0,0.0,52,0.00,CLR,,0.00,WeatherDisplay:10.37,2013-06-09 22:14:00,
2013-06-09 18:19:00,81.7,62.9,30.08,NNE,24,0.0,0.0,53,0.00,CLR,,0.00,WeatherDisplay:10.37,2013-06-09 22:19:00,
2013-06-09 18:24:00,80.2,62.1,30.08,NNE,24,0.0,0.0,54,0.00,CLR,,0.00,WeatherDisplay:10.37,2013-06-09 22:24:00,
2013-06-09 18:29:00,79.5,61.9,30.07,NNE,24,0.0,0.0,55,0.00,CLR,,0.00,WeatherDisplay:10.37,2013-06-09 22:29:00,
2013-06-09 18:34:00,79.2,62.1,30.07,NNE,24,0.0,0.0,56,0.00,CLR,,0.00,WeatherDisplay:10.37,2013-06-09 22:34:00,
2013-06-09 18:39:00,78.6,62.1,30.07,NNE,24,0.0,0.0,57,0.00,CLR,,0.00,WeatherDisplay:10.37,2013-06-09 22:39:00,
2013-06-09 18:44:00,78.3,62.3,30.07,NNE,24,0.0,0.0,58,0.00,CLR,,0.00,WeatherDisplay:10.37,2013-06-09 22:44:00,
2013-06-09 18:49:00,78.1,62.1,30.07,NNE,24,0.0,0.0,58,0.00,CLR,,0.00,WeatherDisplay:10.37,2013-06-09 22:49:00,
2013-06-09 18:54:00,77.7,61.8,30.07,NNE,24,0.0,0.0,58,0.00,CLR,,0.00,WeatherDisplay:10.37,2013-06-09 22:54:00,
2013-06-09 18:59:00,77.5,62.1,30.07,NNE,24,0.0,0.0,59,0.00,CLR,,0.00,WeatherDisplay:10.37,2013-06-09 22:59:00,
2013-06-09 19:04:00,77.2,62.2,30.07,NNE,24,0.0,0.0,60,0.00,CLR,,0.00,WeatherDisplay:10.37,2013-06-09 23:04:00,
2013-06-09 19:09:00,76.8,61.9,30.08,NNE,24,0.0,0.0,60,0.00,CLR,,0.00,WeatherDisplay:10.37,2013-06-09 23:09:00,
2013-06-09 19:14:00,76.6,61.7,30.08,NNE,24,0.0,0.0,60,0.00,CLR,,0.00,WeatherDisplay:10.37,2013-06-09 23:14:00,
2013-06-09 19:19:00,76.5,61.5,30.08,NNE,24,0.0,0.0,60,0.00,CLR,,0.00,WeatherDisplay:10.37,2013-06-09 23:19:00,
2013-06-09 19:24:00,76.1,61.7,30.09,NNE,24,0.0,0.0,61,0.00,CLR,,0.00,WeatherDisplay:10.37,2013-06-09 23:24:00,
2013-06-09 19:29:00,75.9,62.0,30.09,NNE,24,0.0,0.0,62,0.00,CLR,,0.00,WeatherDisplay:10.37,2013-06-09 23:29:00,
2013-06-09 19:34:00,75.6,62.1,30.09,NNE,24,0.0,0.0,63,0.00,CLR,,0.00,WeatherDisplay:10.37,2013-06-09 23:34:00,
2013-06-09 19:39:00,75.0,61.6,30.09,NNE,24,0.0,0.0,63,0.00,CLR,,0.00,WeatherDisplay:10.37,2013-06-09 23:39:00,
2013-06-09 19:44:00,74.5,61.5,30.09,NNE,24,0.0,0.0,64,0.00,CLR,,0.00,WeatherDisplay:10.37,2013-06-09 23:44:00,
2013-06-09 19:49:00,74.1,61.6,30.09,NNE,24,0.0,0.0,65,0.00,CLR,,0.00,WeatherDisplay:10.37,2013-06-09 23:49:00,
2013-06-09 19:54:00,73.8,61.7,30.09,NNE,24,0.0,0.0,66,0.00,CLR,,0.00,WeatherDisplay:10.37,2013-06-09 23:54:00,
2013-06-09 19:59:00,73.2,61.2,30.10,NNE,24,0.0,0.0,66,0.00,CLR,,0.00,WeatherDisplay:10.37,2013-06-09 23:59:00,
2013-06-09 20:04:00,73.0,61.4,30.10,NNE,24,0.0,0.0,67,0.00,CLR,,0.00,WeatherDisplay:10.37,2013-06-10 00:04:00,
2013-06-09 20:09:00,72.9,61.3,30.10,NNE,24,0.0,0.0,67,0.00,CLR,,0.00,WeatherDisplay:10.37,2013-06-10 00:09:00,
2013-06-09 20:14:00,72.5,61.3,30.10,NNE,24,0.0,0.0,68,0.00,CLR,,0.00,WeatherDisplay:10.37,2013-06-10 00:14:00,
2013-06-09 20:19:00,72.1,61.4,30.10,NNE,24,0.0,0.0,69,0.00,CLR,,0.00,WeatherDisplay:10.37,2013-06-10 00:19:00,
2013-06-09 20:24:00,71.4,61.1,30.10,NNE,24,0.0,0.0,70,0.00,CLR,,0.00,WeatherDisplay:10.37,2013-06-10 00:24:00,
2013-06-09 20:29:00,70.9,61.4,30.10,NNE,24,0.0,0.0,72,0.00,CLR,,0.00,WeatherDisplay:10.37,2013-06-10 00:29:00,
2013-06-09 20:34:00,70.3,60.9,30.10,NNE,24,0.0,0.0,72,0.00,CLR,,0.00,WeatherDisplay:10.37,2013-06-10 00:34:00,
2013-06-09 20:39:00,70.0,61.3,30.10,NNE,24,0.0,0.0,74,0.00,CLR,,0.00,WeatherDisplay:10.37,2013-06-10 00:39:00,
2013-06-09 20:44:00,69.8,61.1,30.10,NNE,24,0.0,0.0,74,0.00,CLR,,0.00,WeatherDisplay:10.37,2013-06-10 00:44:00,
2013-06-09 20:49:00,69.6,61.7,30.10,NNE,24,0.0,0.0,76,0.00,CLR,,0.00,WeatherDisplay:10.37,2013-06-10 00:49:00,
2013-06-09 20:54:00,69.6,61.7,30.10,NNE,24,0.0,0.0,76,0.00,CLR,,0.00,WeatherDisplay:10.37,2013-06-10 00:54:00,
2013-06-09 20:59:00,69.1,61.9,30.10,NNE,24,0.0,0.0,78,0.00,CLR,,0.00,WeatherDisplay:10.37,2013-06-10 00:59:00,
2013-06-09 21:04:00,68.9,62.1,30.10,NNE,24,0.0,0.0,79,0.00,CLR,,0.00,WeatherDisplay:10.37,2013-06-10 01:04:00,
2013-06-09 21:10:00,68.7,61.9,30.10,NNE,24,0.0,0.0,79,0.00,CLR,,0.00,WeatherDisplay:10.37,2013-06-10 01:10:00,
2013-06-09 21:15:00,68.5,61.8,30.10,NNE,24,0.0,0.0,79,0.00,CLR,,0.00,WeatherDisplay:10.37,2013-06-10 01:15:00,
2013-06-09 21:20:00,68.5,61.8,30.10,NNE,24,0.0,0.0,79,0.00,CLR,,0.00,WeatherDisplay:10.37,2013-06-10 01:20:00,
2013-06-09 21:25:00,68.4,61.9,30.11,NNE,24,0.0,0.0,80,0.00,CLR,,0.00,WeatherDisplay:10.37,2013-06-10 01:25:00,
2013-06-09 21:30:00,68.2,61.8,30.11,NNE,24,0.0,0.0,80,0.00,CLR,,0.00,WeatherDisplay:10.37,2013-06-10 01:30:00,
2013-06-09 21:35:00,68.2,61.8,30.11,NNE,24,0.0,0.0,80,0.00,CLR,,0.00,WeatherDisplay:10.37,2013-06-10 01:35:00,
2013-06-09 21:40:00,68.0,61.6,30.11,NNE,24,0.0,0.0,80,0.00,CLR,,0.00,WeatherDisplay:10.37,2013-06-10 01:40:00,
2013-06-09 21:45:00,67.8,61.8,30.11,NNE,24,0.0,0.0,81,0.00,CLR,,0.00,WeatherDisplay:10.37,2013-06-10 01:45:00,
2013-06-09 21:50:00,67.8,61.8,30.11,NNE,24,0.0,0.0,81,0.00,CLR,,0.00,WeatherDisplay:10.37,2013-06-10 01:50:00,
2013-06-09 21:55:00,67.6,61.6,30.11,NNE,24,0.0,0.0,81,0.00,CLR,,0.00,WeatherDisplay:10.37,2013-06-10 01:55:00,
2013-06-09 22:00:00,67.6,61.9,30.11,NNE,24,0.0,0.0,82,0.00,CLR,,0.00,WeatherDisplay:10.37,2013-06-10 02:00:00,
2013-06-09 22:05:00,67.3,61.6,30.11,NNE,24,0.0,0.0,82,0.00,CLR,,0.00,WeatherDisplay:10.37,2013-06-10 02:05:00,
2013-06-09 22:10:00,67.3,61.9,30.11,NNE,24,0.0,0.0,83,0.00,CLR,,0.00,WeatherDisplay:10.37,2013-06-10 02:10:00,
2013-06-09 22:15:00,67.3,61.9,30.11,NNE,24,0.0,0.0,83,0.00,CLR,,0.00,WeatherDisplay:10.37,2013-06-10 02:15:00,
2013-06-09 22:20:00,67.1,61.8,30.11,NNE,24,0.0,0.0,83,0.00,CLR,,0.00,WeatherDisplay:10.37,2013-06-10 02:20:00,
2013-06-09 22:25:00,67.1,62.1,30.11,NNE,24,0.0,0.0,84,0.00,CLR,,0.00,WeatherDisplay:10.37,2013-06-10 02:25:00,
2013-06-09 22:30:00,66.9,61.9,30.11,NNE,24,0.0,0.0,84,0.00,CLR,,0.00,WeatherDisplay:10.37,2013-06-10 02:30:00,
2013-06-09 22:35:00,66.9,61.9,30.10,NNE,24,0.0,0.0,84,0.00,CLR,,0.00,WeatherDisplay:10.37,2013-06-10 02:35:00,
2013-06-09 22:40:00,66.9,61.9,30.10,NNE,24,0.0,0.0,84,0.00,CLR,,0.00,WeatherDisplay:10.37,2013-06-10 02:40:00,
2013-06-09 22:45:00,66.7,61.7,30.10,NNE,24,0.0,0.0,84,0.00,CLR,,0.00,WeatherDisplay:10.37,2013-06-10 02:45:00,
2013-06-09 22:50:00,66.7,61.7,30.10,NNE,24,0.0,0.0,84,0.00,CLR,,0.00,WeatherDisplay:10.37,2013-06-10 02:50:00,
2013-06-09 22:55:00,66.7,61.7,30.09,NNE,24,0.0,0.0,84,0.00,CLR,,0.00,WeatherDisplay:10.37,2013-06-10 02:55:00,
2013-06-09 23:00:00,66.7,61.7,30.09,NNE,24,0.0,0.0,84,0.00,CLR,,0.00,WeatherDisplay:10.37,2013-06-10 03:00:00,
2013-06-09 23:05:00,66.6,61.6,30.10,NNE,24,0.0,0.0,84,0.00,CLR,,0.00,WeatherDisplay:10.37,2013-06-10 03:05:00,
2013-06-09 23:10:00,66.7,61.7,30.09,NNE,24,0.0,0.0,84,0.00,CLR,,0.00,WeatherDisplay:10.37,2013-06-10 03:10:00,
2013-06-09 23:15:00,66.6,61.9,30.09,NNE,24,0.0,0.0,85,0.00,CLR,,0.00,WeatherDisplay:10.37,2013-06-10 03:15:00,
2013-06-09 23:20:00,66.6,61.9,30.09,NNE,24,0.0,0.0,85,0.00,CLR,,0.00,WeatherDisplay:10.37,2013-06-10 03:20:00,
2013-06-09 23:25:00,66.6,61.9,30.09,NNE,24,0.0,0.0,85,0.00,CLR,,0.00,WeatherDisplay:10.37,2013-06-10 03:25:00,
2013-06-09 23:30:00,66.4,61.7,30.09,NNE,24,0.0,0.0,85,0.00,CLR,,0.00,WeatherDisplay:10.37,2013-06-10 03:30:00,
2013-06-09 23:35:00,66.4,62.1,30.09,NNE,24,0.0,0.0,86,0.00,CLR,,0.00,WeatherDisplay:10.37,2013-06-10 03:35:00,
2013-06-09 23:40:00,66.4,62.1,30.09,NNE,24,0.0,0.0,86,0.00,CLR,,0.00,WeatherDisplay:10.37,2013-06-10 03:40:00,
2013-06-09 23:45:00,66.4,62.1,30.09,NNE,24,0.0,0.0,86,0.00,CLR,,0.00,WeatherDisplay:10.37,2013-06-10 03:45:00,
2013-06-09 23:50:00,66.2,61.9,30.09,NNE,24,0.0,0.0,86,0.00,CLR,,0.00,WeatherDisplay:10.37,2013-06-10 03:50:00,
2013-06-09 23:55:00,66.0,62.0,30.09,NNE,24,0.0,0.0,87,0.00,CLR,,0.00,WeatherDisplay:10.37,2013-06-10 03:55:00,